Location: Kott?ru
(16.6209°N, 80.6208°E)
Time: 13:40:34
(UTC+00:00)

ERS-2 - Pass Details

Date: 18 September 2020
Orbit: 492 x 499 km, 98.6° (Epoch: 29 October)

Event Time Altitude Azimuth Distance (km) Brightness Sun altitude
Rises 23:16:05 0° 174° (S) 2,573 5.7 -17.6°
Reaches altitude 10° 23:18:10 10° 178° (S) 1,693 4.8 -17.1°
Maximum altitude 23:21:45 59° 258° (WSW) 578 2.1 -16.2°
Drops below altitude 10° 23:25:21 10° 339° (NNW) 1,697 4.7 -15.4°
Sets 23:27:27 0° 343° (NNW) 2,581 5.6 -14.9°
